Regional Weather Roundup
Issued by NWS Bismarck, ND

Home | Current Version | Previous Version | Text Only | Print | Product List | Glossary On
Versions: 1 2 3 4 5 6 7 8 9 10 11 12 13 14 15 16 17 18 19 20 21 22 23 24 25 26 27 28 29 30 31 32 33 34 35 36 37 38 39 40 41 42 43 44 45 46 47 48 49 50
000
ASUS43 KBIS 270110
RWRBIS

NWR BROADCAST TEXT
NATIONAL WEATHER SERVICE BISMARCK ND
800 PM CDT SUN MAR 26 2017

NOTE: "FAIR" INDICATES FEW OR NO CLOUDS BELOW 12,000 FEET WITH NO
SIGNIFICANT WEATHER AND/OR OBSTRUCTIONS TO VISIBILITY.


CITY           SKY/WX    TMP DP  RH WIND       PRES   REMARKS
WILLISTON      FAIR      55  29  36 NW9       29.86R
MINOT          MOCLDY    50  39  66 E9        29.87R
MINOT AFB      MOCLDY    44  39  82 S8        29.87R
BISMARCK       FAIR      50  37  61 E7        29.91R
DICKINSON      FAIR      51  26  37 CALM      29.86R
GARRISON         N/A     48  33  56 SE3       29.87R
HETTINGER ARPT FAIR      51  35  54 S7        29.89S
JAMESTOWN      FAIR      45  38  76 SE5       29.91S
HAZEN          FAIR      54  34  47 SE8       29.89R
LINTON         FAIR      48  43  81 SE7       29.93S
MANDAN         FAIR      52  36  54 SE6       29.90S
STANLEY        MOCLDY    50  36  57 NW17G25   29.90R
TIOGA          FAIR      50  34  53 N7        29.88R
WATFORD CITY   CLOUDY    55  32  41 CALM      29.86R
$$

CITY           SKY/WX    TMP DP  RH WIND       PRES   REMARKS
GRAND FORKS    FAIR      44  40  85 CALM      29.94S
GRAND FORKS AF FAIR      42  39  91 CALM      29.94S
DEVILS LAKE    FAIR      42  40  92 NE6       29.93R
FARGO          MOCLDY    43  38  82 CALM      29.94S
CAVALIER       FAIR      37  36  93 CALM      29.96S FOG
GRAFTON        FAIR      41  41 100 N7        29.97R
GWINNER        CLEAR     45  39  81 MISG      29.94R
LANGDON        FAIR      36  36 100 SE8       29.94S FOG
ROLLA          FAIR      37  37 100 SE6       29.92S
$$

CITY           SKY/WX    TMP DP  RH WIND       PRES   REMARKS
ABERDEEN       CLOUDY    45  35  68 S3        29.94R
MOBRIDGE       CLOUDY    50  37  61 SE3       29.89S
BUFFALO          N/A     52  37  56 S12       29.83S
RAPID CITY     CLOUDY    43  39  86 NW5       29.93R
GLASGOW        FAIR      53  22  29 W5        29.87S
SIDNEY         FAIR      56  27  32 NW9       29.87R
WOLF POINT     FAIR      55  24  30 W7        29.88S
GLENDIVE       FAIR      54  27  35 NW10      29.87R
MILES CITY     FAIR      57  30  35 SW5       29.86R
BAKER          FAIR      53  29  39 NW5       29.88S
$$

CITY           SKY/WX    TMP DP  RH WIND       PRES   REMARKS
BILLINGS       MOCLDY    55  28  35 SE12      29.83S
GREAT FALLS    FAIR      52  19  27 CALM      29.80F
REGINA         MOCLDY    50  27  40 W7        29.85R
ESTEVAN        MOCLDY    43  37  81 E10       29.87R
$$




USA.gov is the U.S. government's official web portal to all federal, state and local government web resources and services.